Weather History for Tallahassee, FL

Change the Weather History Date:

Wednesday, February 6, 2013

  Actual Average Record
Temperature  
Mean Temperature 65 °F 53 °F  
Max Temperature 72 °F 66 °F 83 °F (1957)
Min Temperature 57 °F 40 °F 18 °F (1966)
Degree Days  
Heating Degree Days 0    
Month to date heating degree days 74  
Since 1 July heating degree days 792  
Cooling Degree Days 0    
Month to date cooling degree days 0  
Year to date cooling degree days 34  
Growing Degree Days 14 (Base 50)    
Moisture  
Dew Point 56 °F    
Average Humidity 75    
Maximum Humidity 93    
Minimum Humidity 57    
Precipitation  
Precipitation 0.02 in 0.15 in 2.89 in (1965)
Month to date precipitation 0.14 0.94  
Year to date precipitation 0.99 5.28  
Sea Level Pressure  
Sea Level Pressure 30.09 in    
Wind  
Wind Speed 3 mph (East)    
Max Wind Speed 30 mph    
Max Gust Speed 77 mph    
Visibility 9 miles    
Events Rain    
T = Trace of Precipitation, MM = Missing Value Source: NWS Daily Summary

Daily Weather History Graph

Daily Weather History Graph

Search for Another Location

Airport:

Trip Planner

Search our weather history database for the weather conditions in past years. The results will help you decide how hot, cold, wet, or windy it might be!

Date:

Astronomy

Feb. 06, 2013 Rise Set
Actual Time 7:24 AM EST 6:18 PM EST
Civil Twilight 6:59 AM EST 6:43 PM EST
Nautical Twilight 6:31 AM EST 7:12 PM EST
Astronomical Twilight 6:03 AM EST 7:40 PM EST
Moon 3:59 AM EST (2/6) 2:43 PM EST (2/6)
Length of Visible Light 11h 43m
Length of Day
10h 53m
Waning Crescent, 17% of the Moon is Illuminated
Feb 6
Waning Crescent
Feb 10
New
Feb 17
First Quarter
Feb 25
Full
Mar 4
Last Quarter

Hourly Weather History & Observations

Time (EST) Temp. Dew Point Humidity Pressure Visibility Wind Dir Wind Speed Gust Speed Precip Events Conditions
12:53 AM 57.9 °F 55.0 °F 90% 30.04 in 10.0 mi ESE 5.8 mph - 0.00 in Rain Light Rain
1:33 AM 57.2 °F 55.4 °F 94% 30.05 in 10.0 mi Calm Calm - N/A   Overcast
1:53 AM 57.2 °F 55.4 °F 94% 30.04 in 10.0 mi SE 3.5 mph - N/A   Overcast
2:53 AM 57.2 °F 55.4 °F 94% 30.05 in 10.0 mi NNE 3.5 mph - N/A   Overcast
3:53 AM 59.0 °F 55.9 °F 90% 30.05 in 10.0 mi North 3.5 mph - N/A   Overcast
4:53 AM 59.0 °F 55.9 °F 90% 30.06 in 5.0 mi Calm Calm - 0.01 in   Overcast
5:21 AM 59.0 °F 55.4 °F 88% 30.06 in 6.0 mi Calm Calm - 0.01 in   Overcast
5:53 AM 59.0 °F 55.9 °F 90% 30.07 in 6.0 mi Calm Calm - 0.01 in   Light Drizzle
6:14 AM 59.0 °F 55.4 °F 88% 30.07 in 6.0 mi Calm Calm - 0.00 in   Overcast
6:40 AM 59.0 °F 55.4 °F 88% 30.08 in 8.0 mi Calm Calm - 0.00 in   Overcast
6:53 AM 59.0 °F 57.0 °F 93% 30.08 in 8.0 mi Calm Calm - 0.00 in   Overcast
7:35 AM 59.0 °F 57.2 °F 94% 30.10 in 6.0 mi Calm Calm - N/A   Overcast
7:53 AM 59.0 °F 57.0 °F 93% 30.11 in 6.0 mi Calm Calm - N/A   Overcast
8:28 AM 60.8 °F 57.2 °F 88% 30.13 in 7.0 mi Calm Calm - N/A   Overcast
8:53 AM 60.1 °F 57.0 °F 90% 30.14 in 8.0 mi Calm Calm - N/A   Overcast
9:53 AM 61.0 °F 57.0 °F 87% 30.14 in 10.0 mi Calm Calm - N/A   Overcast
10:49 AM 64.4 °F 57.2 °F 77% 30.15 in 10.0 mi Variable 3.5 mph - N/A   Mostly Cloudy
10:53 AM 64.9 °F 57.0 °F 75% 30.14 in 10.0 mi ESE 4.6 mph - N/A   Mostly Cloudy
11:32 AM 68.0 °F 57.2 °F 68% 30.14 in 10.0 mi East 8.1 mph - N/A   Overcast
11:53 AM 66.9 °F 57.0 °F 70% 30.14 in 10.0 mi ENE 6.9 mph - N/A   Mostly Cloudy
12:14 PM 68.0 °F 55.4 °F 64% 30.14 in 10.0 mi East 6.9 mph - N/A   Overcast
12:53 PM 71.1 °F 55.0 °F 57% 30.11 in 10.0 mi ENE 5.8 mph - N/A   Scattered Clouds
1:53 PM 70.0 °F 55.0 °F 59% 30.09 in 10.0 mi East 4.6 mph - N/A   Overcast
2:53 PM 70.0 °F 55.0 °F 59% 30.10 in 10.0 mi ESE 4.6 mph - N/A   Overcast
3:53 PM 70.0 °F 55.0 °F 59% 30.08 in 10.0 mi East 5.8 mph - N/A   Overcast
4:53 PM 70.0 °F 54.0 °F 57% 30.07 in 10.0 mi East 6.9 mph - N/A   Overcast
5:53 PM 70.0 °F 55.0 °F 59% 30.07 in 10.0 mi ENE 5.8 mph - N/A   Overcast
6:53 PM 66.0 °F 55.9 °F 70% 30.08 in 10.0 mi Calm Calm - N/A   Overcast
7:53 PM 64.9 °F 55.9 °F 73% 30.09 in 10.0 mi Calm Calm - N/A   Mostly Cloudy
8:53 PM 64.9 °F 57.0 °F 75% 30.10 in 10.0 mi Calm Calm - N/A   Overcast
9:53 PM 63.0 °F 57.0 °F 81% 30.10 in 10.0 mi Calm Calm - N/A   Overcast
10:53 PM 62.1 °F 55.9 °F 80% 30.09 in 10.0 mi Calm Calm - N/A   Mostly Cloudy
11:53 PM 60.1 °F 55.9 °F 86% 30.07 in 10.0 mi North - - N/A   Partly Cloudy